Regional Weather Roundup
Issued by NWS San Angelo, TX

Home | Current Version | Previous Version | Text Only | Print | Product List | Glossary On
Versions: 1 2 3 4 5 6 7 8 9 10 11 12 13 14 15 16 17 18 19 20 21 22 23 24 25 26 27 28 29 30 31 32 33 34 35 36 37 38 39 40 41 42 43 44 45 46 47 48 49 50
000
ASUS44 KSJT 040402
RWRSJT
WEST CENTRAL TEXAS REGIONAL WEATHER ROUNDUP
NATIONAL WEATHER SERVICE SAN ANGELO TX
1000 PM CST SAT DEC 03 2016

NOTE: "FAIR" INDICATES FEW OR NO CLOUDS BELOW 12,000 FEET WITH NO
SIGNIFICANT WEATHER AND/OR OBSTRUCTIONS TO VISIBILITY.

TXZ049-054-064>066-071>073-076>078-098-099-113-114-127-128-139-140-
154-155-168>170-040500
...LOCATIONS ACROSS WEST CENTRAL TEXAS...

CITY           SKY/WX    TMP DP  RH WIND       PRES   REMARKS
SAN ANGELO     CLOUDY    47  46  97 N8        29.99R FOG
ABILENE        CLOUDY    45  45 100 N8        29.99F FOG
DYESS AFB      CLOUDY    45  45 100 N8        29.97F
JUNCTION       CLOUDY    48  47  96 N5        29.95R
SWEETWATER     CLOUDY    44  44 100 N7        30.01S WCI  40
BROWNWOOD      NOT AVBL
COLEMAN        CLOUDY    47  46  95 N7        29.98R FOG
SONORA         LGT RAIN  46  46 100 NW6       30.02R
OZONA          NOT AVBL
BRADY          NOT AVBL
$$

TEXAS PANHANDLE/OKLAHOMA PANHANDLE

CITY           SKY/WX    TMP DP  RH WIND       PRES   REMARKS
AMARILLO       CLOUDY    38  38 100 S8        30.01R WCI  32
BORGER         FOG       39  39 100 CALM      30.02R VSB 1/2
CANADIAN       CLOUDY    42  41  97 SE3       30.03S
DALHART        FOG       35  35 100 SW6       30.00S VSB 1/4 WCI  30
DUMAS          CLOUDY    36  35  96 CALM      30.01R
GUYMON         NOT AVBL
HEREFORD       CLOUDY    40  39  98 SE7       30.02S WCI  35
PAMPA          CLOUDY    40  39  95 S3        30.02R
PERRYTON       CLOUDY    41  40  96 CALM      30.01S
$$

SOUTHERN PANHANDLE/SOUTH PLAINS/ROLLING PLAINS

CITY           SKY/WX    TMP DP  RH WIND       PRES   REMARKS
LUBBOCK        CLOUDY    40  39  97 CALM      29.99F
SNYDER         LGT RAIN  41  41  99 NE6       30.01S WCI  37
CHILDRESS      CLOUDY    44  42  93 E3        30.02F FOG
SEMINOLE       CLOUDY    40  40  99 NE5       30.00F WCI  37
$$

PERMIAN BASIN

CITY           SKY/WX    TMP DP  RH WIND       PRES   REMARKS
MIDLAND        CLOUDY    43  40  89 NE6       29.99R WCI  39
ODESSA         LGT RAIN  43  39  86 VRB3      30.00R FOG
WINK           CLOUDY    43  42  97 W3        30.01R
$$

FAR WEST/SOUTHWEST MOUNTAINS/TRANS PECOS

CITY           SKY/WX    TMP DP  RH WIND       PRES   REMARKS
ALPINE         CLOUDY    37  37  98 CALM      30.06S
DRYDEN           N/A     47  45  93 N8        29.96R
EL PASO        MOCLDY    45  37  73 CALM      29.99S
FORT STOCKTON  CLOUDY    42  42 100 NW6       30.01R WCI  38
GUADALUPE PASS FOG       35  32  88 W5        30.00R VSB<1/4 WCI  31
MARFA          CLOUDY    37  35  92 N8        29.99F WCI  31
PECOS          CLOUDY    41  39  93 NW9       30.04R WCI  35
$$

DALLAS/FORT WORTH METROPLEX

CITY           SKY/WX    TMP DP  RH WIND       PRES   REMARKS
DFW AIRPORT    CLOUDY    48  45  89 N9        29.99F
FTW MEACHAM    CLOUDY    49  46  90 NE6       30.00F
DAL-EXECUTIVE  CLOUDY    48  47  96 NE7       29.98F FOG
GRAND PRAIRIE  CLOUDY    47  47 100 N8        30.01F
ADDISON        CLOUDY    48  48 100 N5        30.02R FOG
MESQUITE       CLOUDY    47  47  99 NE3       29.99F
LANCASTER      CLOUDY    49  47  92 NE5       29.99F FOG
$$

NORTH CENTRAL TEXAS

CITY           SKY/WX    TMP DP  RH WIND       PRES   REMARKS
SHRMAN/DENISON CLOUDY    46  46 100 NE5       30.03S FOG
GAINESVILLE    CLOUDY    45  44  97 CALM      30.04F FOG
BRIDGEPORT     CLOUDY    46  46 100 E6        30.02F FOG
DENTON         CLOUDY    46  46 100 NE8       30.01F FOG
WAXAHACHIE     CLOUDY    47  47 100 NE3       29.99S FOG
GRANBURY       CLOUDY    50  48  92 N5        29.98F
$$

WESTERN NORTH TEXAS

CITY           SKY/WX    TMP DP  RH WIND       PRES   REMARKS
WICHITA FALLS  CLOUDY    45  43  93 E7        30.03R
VERNON         CLOUDY    46  42  87 E6        30.04S
BRECKENRIDGE   CLOUDY    48  47  99 N3        29.99F FOG
COMANCHE       CLOUDY    47  47 100 N7        29.96F FOG
$$

CENTRAL AND SOUTH CENTRAL TEXAS

CITY           SKY/WX    TMP DP  RH WIND       PRES   REMARKS
AUSTIN/BERGSTM CLOUDY    51  49  92 N10       29.93R
WACO           CLOUDY    49  48  97 N13       29.94F
HILLSBORO      CLOUDY    48  48  97 NE9       29.95F
TEMPLE         CLOUDY    49  48  97 N10       29.95R
KILLEEN-GRAY   CLOUDY    48  48 100 NE7       29.93S
FORT HOOD      CLOUDY    48  48 100 NE8       29.92R
GEORGETOWN     CLOUDY    50  46  87 N8        29.94S
LAGO VISTA     FOG       49  48  97 N7        29.93S VSB 1
SAN MARCOS     CLOUDY    52  48  87 NE13      29.92F
NEW BRAUNFELS  CLOUDY    52  49  89 NE16      29.89F
RANDOLPH AFB   CLOUDY    51  51 100 N8        29.93R
SAN ANTONIO    CLOUDY    52  49  89 N9        29.92R
STINSON        LGT RAIN  54  50  86 N12       29.90S
PLEASANTON     NOT AVBL
LA GRANGE      CLOUDY    52  51  95 N6        29.89F
GIDDINGS       CLOUDY    49  48  97 N8        29.94F
$$

EAST TEXAS

CITY           SKY/WX    TMP DP  RH WIND       PRES   REMARKS
PARIS          CLOUDY    46  43  87 E8        30.03R
CLARKSVILLE    NOT AVBL
TYLER          CLOUDY    49  47  93 W10G23    29.99R
LONGVIEW       CLOUDY    48  47  96 E14       29.92F
PALESTINE      CLOUDY    49  48  97 NW6       29.97R
NACOGDOCHES    CLOUDY    48  45  87 NE6       29.90F
$$

TEXAS HILL COUNTRY AND EDWARDS PLATEAU

CITY           SKY/WX    TMP DP  RH WIND       PRES   REMARKS
LLANO          CLOUDY    50  50 100 CALM      29.98F FOG
HORSESHOE BAY  CLOUDY    49  49  99 N5        29.95F FOG
KERRVILLE      CLOUDY    49  47  96 N6        29.92F
FREDERICKSBRG  CLOUDY    47  46  95 N6        29.94F
ROCKSPRINGS    NOT AVBL
HONDO          CLOUDY    53  51  93 N17       29.87F
UVALDE         CLOUDY    52  51  95 N7        29.89F
DEL RIO        LGT RAIN  51  51 100 NW12      29.94R FOG
$$

SOUTHEAST TEXAS

CITY           SKY/WX    TMP DP  RH WIND       PRES   REMARKS
COLLEGE STN    CLOUDY    51  50  96 NW9       29.92R
CALDWELL       NOT AVBL
CROCKETT       NOT AVBL
BRENHAM        CLOUDY    52  52  99 NW7       29.93R
HUNTSVILLE     CLOUDY    50  48  93 E8        29.82F
CONROE         CLOUDY    51  50  96 E7        29.83F
HOUSTON BUSH   CLOUDY    52  50  93 E14       29.83F
HOUSTON HOBBY  MOCLDY    54  52  93 E10       29.85F
PERLAND        CLOUDY    56  53  90 NE10      29.86F
WHARTON        LGT RAIN  54  53  97 E6        29.83S
$$

THE UPPER TEXAS COAST

CITY           SKY/WX    TMP DP  RH WIND       PRES   REMARKS
ORANGE         CLOUDY   N/A N/A N/A N7        29.92R
PORT ARTHUR    CLOUDY    53  52  96 N10       29.88R
GALVESTON      CLOUDY    58  56  93 N16       29.88F
ANGLETON       CLOUDY    56  54  93 NE7       29.86F
BAY CITY       CLOUDY    56  55  97 E7        29.85F
$$

TEXAS COASTAL BEND, RIO GRANDE PLAINS DEEP SOUTH TEXAS

CITY           SKY/WX    TMP DP  RH WIND       PRES   REMARKS
VICTORIA       CLOUDY    54  53  97 N7        29.84S
BEEVILLE       CLOUDY    51  51 100 N7        29.88R
ROCKPORT         N/A    N/A N/A N/A MISG      29.89R
PORT ARANSAS   CLOUDY    62  59  92 NW15G23   29.89R
PORT LAVACA    CLOUDY    55  55 100 N5        29.85R
CORPUS CHRISTI TSTM      60  59  96 E16       29.84F FOG
KINGSVILLE NAS TSTM      62  62 100 NE9G21    29.86R FOG
COTULLA        CLOUDY    56  54  93 N6        29.87R
LAREDO         CLOUDY    57  55  93 N10       29.87R
BROWNSVILLE    CLOUDY    68  64  87 N14G20    29.81R
PORT ISABEL    CLOUDY    69  68  96 N17       29.80R
HEBBRONVILLE   CLOUDY    57  56  97 N3G9      29.84R
MCALLEN        CLOUDY    63  57  81 N16       29.87R
WESLACO        CLOUDY    60  57  91 N10       29.84R
FALFURRIAS     CLOUDY    60  59  95 E20       29.82F
EDINBURG       CLOUDY    61  56  85 N7        29.88R THUNDER
$$




USA.gov is the U.S. government's official web portal to all federal, state and local government web resources and services.